Back to catalog

CZ-3B DEB

LostGTO
NORAD 42476·DEBRIS·🇨🇳 China

Launched Dec 19, 2011 from Xichang Satellite Launch Center

Loading…

TLE

StaleSource: Space-Track

Epoch: Jul 20, 2025, 03:29 UTC

1 42476U 11077AR  25201.14562412 -.00000255  00000-0 -30800-3 0  9992
2 42476  26.4759  66.3090 7417570 271.1562  13.1285  1.88942128 70423

Track CZ-3B DEB in real time with AllMySat

Download on the App Store